Weather History for Crestview, FL

Change the Weather History Date:

Tuesday, November 27, 2012

  Actual Average Record
Temperature  
Mean Temperature 60 °F -  
Max Temperature 64 °F 70 °F 81 °F (1990)
Min Temperature 54 °F 46 °F 29 °F (1991)
Degree Days  
Heating Degree Days 6    
Growing Degree Days 10 (Base 50)    
Moisture  
Dew Point 57 °F    
Average Humidity 92    
Maximum Humidity 100    
Minimum Humidity 82    
Precipitation  
Precipitation 0.39 in - - ()
Sea Level Pressure  
Sea Level Pressure 30.17 in    
Wind  
Wind Speed 2 mph (NNW)    
Max Wind Speed 13 mph    
Max Gust Speed 20 mph    
Visibility 6 miles    
Events Rain    
Averages and records for this station are not official NWS values.
T = Trace of Precipitation, MM = Missing Value Source: NWS Daily Summary

Daily Weather History Graph

Daily Weather History Graph

Search for Another Location

Airport:

Trip Planner

Search our weather history database for the weather conditions in past years. The results will help you decide how hot, cold, wet, or windy it might be!

Date:

Astronomy

Nov. 27, 2012 Rise Set
Actual Time 6:23 AM CST 4:44 PM CST
Civil Twilight 5:57 AM CST 5:10 PM CST
Nautical Twilight 5:27 AM CST 5:40 PM CST
Astronomical Twilight 4:58 AM CST 6:09 PM CST
Moon 4:14 PM CST (11/27) 5:29 AM CST (11/27)
Length of Visible Light 11h 13m
Length of Day
10h 21m
Waxing Gibbous, 99% of the Moon is Illuminated
Nov 27
Waxing Gibbous
Nov 28
Full
Dec 6
Last Quarter
Dec 13
New
Dec 19
First Quarter

Hourly Weather History & Observations

Time (CST) Temp. Dew Point Humidity Pressure Visibility Wind Dir Wind Speed Gust Speed Precip Events Conditions
12:53 AM 57.0 °F 53.1 °F 87% 30.16 in 10.0 mi Calm Calm - N/A   Overcast
1:53 AM 55.9 °F 54.0 °F 93% 30.14 in 10.0 mi Calm Calm - 0.00 in   Mostly Cloudy
2:53 AM 57.0 °F 55.0 °F 93% 30.13 in 10.0 mi Calm Calm - 0.00 in   Scattered Clouds
3:53 AM 57.0 °F 54.0 °F 89% 30.12 in 10.0 mi Calm Calm - N/A   Mostly Cloudy
4:40 AM 57.2 °F 53.6 °F 88% 30.13 in 10.0 mi Calm Calm - N/A   Overcast
4:53 AM 57.0 °F 55.0 °F 93% 30.13 in 10.0 mi Calm Calm - 0.00 in Rain Light Rain
5:01 AM 57.2 °F 55.4 °F 94% 30.13 in 8.0 mi Calm Calm - 0.00 in Rain Light Rain
5:48 AM 57.2 °F 55.4 °F 94% 30.14 in 10.0 mi Calm Calm - 0.00 in Rain Light Rain
6:53 AM 59.0 °F 57.0 °F 93% 30.14 in 4.0 mi Calm Calm - 0.02 in Rain Light Rain
7:53 AM 60.1 °F 57.9 °F 93% 30.15 in 4.0 mi Calm Calm - 0.00 in Rain Light Rain
7:58 AM 60.8 °F 57.2 °F 88% 30.16 in 2.5 mi Calm Calm - 0.01 in Rain Light Rain
8:10 AM 60.8 °F 59.0 °F 94% 30.16 in 1.2 mi ESE 3.5 mph - 0.05 in Rain Heavy Rain
8:22 AM 60.8 °F 59.0 °F 94% 30.16 in 2.0 mi SE 3.5 mph - 0.06 in Rain Light Rain
8:42 AM 60.8 °F 60.8 °F 100% 30.16 in 3.0 mi Calm Calm - 0.08 in Rain Rain
8:53 AM 62.1 °F 60.1 °F 93% 30.15 in 3.0 mi SSE 3.5 mph - 0.09 in Rain Rain
9:53 AM 64.0 °F 62.1 °F 93% 30.16 in 5.0 mi NW 11.5 mph 16.1 mph N/A Rain Light Rain
10:03 AM 62.6 °F 59.0 °F 88% 30.17 in 2.5 mi NNW 12.7 mph 18.4 mph N/A Rain Rain
10:10 AM 62.6 °F 57.2 °F 82% 30.16 in 1.2 mi NNW 9.2 mph 19.6 mph N/A Rain Heavy Rain
10:28 AM 60.8 °F 57.2 °F 88% 30.16 in 3.0 mi Calm Calm - N/A Rain Light Rain
10:46 AM 60.8 °F 57.2 °F 88% 30.19 in 1.8 mi NW 6.9 mph - N/A Rain Heavy Rain
10:53 AM 61.0 °F 57.9 °F 90% 30.19 in 1.5 mi WNW 3.5 mph - N/A Rain Heavy Rain
11:53 AM 60.1 °F 57.9 °F 93% 30.18 in 1.5 mi Calm Calm - 0.26 in Rain Heavy Rain
12:03 PM 60.8 °F 59.0 °F 94% 30.17 in 3.0 mi Calm Calm - 0.02 in Rain Rain
12:53 PM 61.0 °F 59.0 °F 93% 30.15 in 5.0 mi Calm Calm - 0.02 in Rain Light Rain
1:44 PM 60.8 °F 59.0 °F 94% 30.12 in 7.0 mi East 3.5 mph - 0.00 in Rain Light Rain
1:53 PM 61.0 °F 59.0 °F 93% 30.12 in 7.0 mi Calm Calm - 0.00 in Rain Light Rain
2:53 PM 62.1 °F 59.0 °F 90% 30.11 in 9.0 mi Calm Calm - 0.00 in Rain Light Rain
3:53 PM 62.1 °F 59.0 °F 90% 30.14 in 10.0 mi NW 3.5 mph - 0.00 in   Mostly Cloudy
4:03 PM 62.6 °F 59.0 °F 88% 30.15 in 10.0 mi NW 5.8 mph - N/A   Scattered Clouds
4:22 PM 60.8 °F 59.0 °F 94% 30.16 in 10.0 mi NW 4.6 mph - N/A   Mostly Cloudy
4:46 PM 60.8 °F 57.2 °F 88% 30.17 in 10.0 mi WNW 3.5 mph - N/A   Scattered Clouds
4:53 PM 60.1 °F 57.9 °F 93% 30.17 in 10.0 mi WNW 4.6 mph - N/A   Partly Cloudy
5:18 PM 60.8 °F 57.2 °F 88% 30.18 in 9.0 mi Calm Calm - N/A   Mostly Cloudy
5:28 PM 60.8 °F 57.2 °F 88% 30.18 in 8.0 mi Calm Calm - N/A   Scattered Clouds
5:53 PM 60.1 °F 57.9 °F 93% 30.19 in 7.0 mi Calm Calm - N/A   Mostly Cloudy
6:53 PM 60.1 °F 57.9 °F 93% 30.21 in 8.0 mi NNW 3.5 mph - N/A   Overcast
7:29 PM 59.0 °F 57.2 °F 94% 30.22 in 8.0 mi NNW 3.5 mph - N/A   Overcast
7:53 PM 60.1 °F 57.0 °F 90% 30.22 in 8.0 mi NNW 4.6 mph - N/A   Overcast
8:53 PM 57.9 °F 55.9 °F 93% 30.23 in 6.0 mi NNW 5.8 mph - N/A   Overcast
9:21 PM 57.2 °F 55.4 °F 94% 30.24 in 5.0 mi North 6.9 mph - N/A   Overcast
9:53 PM 55.9 °F 54.0 °F 93% 30.25 in 6.0 mi NNW 6.9 mph - N/A   Overcast
10:03 PM 55.4 °F 53.6 °F 94% 30.26 in 7.0 mi NNW 8.1 mph - N/A   Overcast
10:53 PM 55.0 °F 53.1 °F 93% 30.26 in 7.0 mi NNW 6.9 mph - N/A   Overcast
11:53 PM 54.0 °F 52.0 °F 93% 30.26 in 5.0 mi North 4.6 mph - N/A   Overcast